When you browse on this site, cookies collect data to enhance your experience and personalize the content and advertising you see.
Visit our Privacy Policy to learn more. By continuing to use the site, you agree to this use of cookies and data.
  • în România
  • Lista ţărilor
  • Pe 7 zile
  • Temperatura apei
  • Meteo pe hartă
  • Widget-uri
  • user-avatar
    Intrare

    Meteo pe oră la Sent-Eli

    Astăzi, 14 Noiembrie, Joi

    Timp Temperatura Precipitaţii Vânt Presiune Umiditate
    00:00 +27°C° 0 mm 3 m/s 753 mmHg 88%
    01:00 +27°C° 0 mm 3 m/s 753 mmHg 89%
    02:00 +27°C° 0 mm 4 m/s 752 mmHg 89%
    03:00 +27°C° 0 mm 4 m/s 753 mmHg 90%
    04:00 +27°C° 0 mm 4 m/s 753 mmHg 90%
    05:00 +27°C° 0 mm 4 m/s 753 mmHg 91%
    06:00 +28°C° 0 mm 4 m/s 753 mmHg 84%
    07:00 +30°C° 0 mm 4 m/s 754 mmHg 76%
    08:00 +32°C° 0 mm 4 m/s 755 mmHg 69%
    09:00 +33°C° 0 mm 4 m/s 754 mmHg 65%
    10:00 +34°C° 0 mm 4 m/s 754 mmHg 62%
    11:00 +34°C° 0 mm 4 m/s 754 mmHg 59%
    12:00 +34°C° 0.1 mm 4 m/s 753 mmHg 59%
    13:00 +34°C° 0.1 mm 4 m/s 753 mmHg 60%
    14:00 +34°C° 0.1 mm 4 m/s 752 mmHg 60%
    15:00 +33°C° 0 mm 4 m/s 752 mmHg 65%
    16:00 +30°C° 0 mm 4 m/s 752 mmHg 71%
    17:00 +29°C° 0 mm 4 m/s 752 mmHg 77%
    18:00 +29°C° 0 mm 4 m/s 753 mmHg 79%
    19:00 +28°C° 0 mm 4 m/s 753 mmHg 81%
    20:00 +28°C° 0 mm 4 m/s 754 mmHg 84%
    21:00 +27°C° 0 mm 4 m/s 753 mmHg 85%
    22:00 +27°C° 0 mm 4 m/s 753 mmHg 86%
    23:00 +27°C° 0 mm 4 m/s 753 mmHg 88%

    Mâine, 15 Noiembrie, Vineri

    Timp Temperatura Precipitaţii Vânt Presiune Umiditate
    00:00 +27°C° 0 mm 4 m/s 753 mmHg 89%
    01:00 +27°C° 0 mm 4 m/s 752 mmHg 90%
    02:00 +27°C° 0 mm 4 m/s 752 mmHg 91%
    03:00 +27°C° 0 mm 4 m/s 752 mmHg 91%
    04:00 +27°C° 0 mm 3 m/s 752 mmHg 90%
    05:00 +27°C° 0 mm 3 m/s 753 mmHg 89%
    06:00 +28°C° 0 mm 3 m/s 753 mmHg 82%
    07:00 +30°C° 0 mm 4 m/s 753 mmHg 75%
    08:00 +32°C° 0 mm 4 m/s 754 mmHg 69%
    09:00 +33°C° 0 mm 4 m/s 754 mmHg 65%
    10:00 +33°C° 0 mm 4 m/s 754 mmHg 62%
    11:00 +34°C° 0 mm 4 m/s 753 mmHg 59%
    12:00 +34°C° 0 mm 4 m/s 753 mmHg 59%
    13:00 +34°C° 0 mm 4 m/s 752 mmHg 60%
    14:00 +34°C° 0 mm 4 m/s 751 mmHg 61%
    15:00 +32°C° 0 mm 4 m/s 751 mmHg 66%
    16:00 +30°C° 0 mm 4 m/s 751 mmHg 71%
    17:00 +29°C° 0 mm 4 m/s 751 mmHg 76%
    18:00 +29°C° 0 mm 4 m/s 751 mmHg 78%
    19:00 +28°C° 0 mm 5 m/s 752 mmHg 80%
    20:00 +28°C° 0 mm 5 m/s 752 mmHg 82%
    21:00 +28°C° 0 mm 5 m/s 752 mmHg 83%
    22:00 +28°C° 0 mm 4 m/s 752 mmHg 85%
    23:00 +28°C° 0 mm 4 m/s 752 mmHg 86%

    Poimâine, 16 Noiembrie, Sâmbătă

    Timp Temperatura Precipitaţii Vânt Presiune Umiditate
    00:00 +27°C° 0 mm 4 m/s 752 mmHg 88%
    01:00 +27°C° 0 mm 4 m/s 751 mmHg 89%
    02:00 +27°C° 0 mm 4 m/s 751 mmHg 90%
    03:00 +27°C° 0 mm 4 m/s 751 mmHg 90%
    04:00 +27°C° 0 mm 4 m/s 751 mmHg 90%
    05:00 +27°C° 0 mm 4 m/s 751 mmHg 89%
    06:00 +28°C° 0 mm 4 m/s 751 mmHg 82%
    07:00 +30°C° 0 mm 4 m/s 752 mmHg 75%
    08:00 +32°C° 0 mm 4 m/s 752 mmHg 68%
    09:00 +33°C° 0 mm 4 m/s 752 mmHg 64%
    10:00 +34°C° 0 mm 4 m/s 752 mmHg 60%
    11:00 +34°C° 0 mm 4 m/s 752 mmHg 56%
    12:00 +34°C° 0 mm 4 m/s 751 mmHg 57%
    13:00 +34°C° 0 mm 4 m/s 750 mmHg 57%
    14:00 +34°C° 0 mm 4 m/s 749 mmHg 58%
    15:00 +33°C° 0 mm 5 m/s 750 mmHg 64%
    16:00 +30°C° 0 mm 5 m/s 750 mmHg 69%
    17:00 +29°C° 0 mm 5 m/s 750 mmHg 75%
    18:00 +29°C° 0 mm 5 m/s 750 mmHg 77%
    19:00 +29°C° 0 mm 5 m/s 751 mmHg 80%
    20:00 +28°C° 0 mm 6 m/s 751 mmHg 82%
    21:00 +28°C° 0 mm 5 m/s 751 mmHg 82%
    22:00 +28°C° 0 mm 5 m/s 751 mmHg 82%
    23:00 +28°C° 0 mm 5 m/s 751 mmHg 82%

    17 Noiembrie, Duminică

    Timp Temperatura Precipitaţii Vânt Presiune Umiditate
    00:00 +28°C° 0 mm 5 m/s 751 mmHg 83%
    01:00 +28°C° 0 mm 5 m/s 750 mmHg 83%
    02:00 +28°C° 0 mm 5 m/s 750 mmHg 84%
    03:00 +28°C° 0.1 mm 5 m/s 750 mmHg 85%
    04:00 +28°C° 0.1 mm 5 m/s 750 mmHg 86%
    05:00 +28°C° 0.1 mm 5 m/s 751 mmHg 88%
    06:00 +28°C° 0.1 mm 5 m/s 751 mmHg 84%
    07:00 +29°C° 0.1 mm 5 m/s 752 mmHg 81%
    08:00 +30°C° 0.1 mm 5 m/s 752 mmHg 77%
    09:00 +30°C° 0.4 mm 5 m/s 752 mmHg 76%
    10:00 +32°C° 0.4 mm 5 m/s 752 mmHg 75%
    11:00 +32°C° 0.4 mm 5 m/s 752 mmHg 73%
    12:00 +33°C° 0.1 mm 5 m/s 751 mmHg 70%
    13:00 +33°C° 0.1 mm 5 m/s 750 mmHg 66%
    14:00 +33°C° 0.1 mm 6 m/s 750 mmHg 62%
    15:00 +32°C° 0 mm 6 m/s 750 mmHg 68%
    16:00 +30°C° 0 mm 5 m/s 750 mmHg 73%
    17:00 +29°C° 0 mm 5 m/s 750 mmHg 79%
    18:00 +29°C° 0 mm 5 m/s 750 mmHg 81%
    19:00 +28°C° 0 mm 5 m/s 751 mmHg 84%
    20:00 +28°C° 0 mm 5 m/s 751 mmHg 87%
    21:00 +28°C° 0 mm 5 m/s 751 mmHg 88%
    22:00 +28°C° 0 mm 5 m/s 751 mmHg 88%
    23:00 +28°C° 0 mm 5 m/s 752 mmHg 89%

    18 Noiembrie, Luni

    Timp Temperatura Precipitaţii Vânt Presiune Umiditate
    00:00 +27°C° 0.3 mm 5 m/s 751 mmHg 90%
    01:00 +27°C° 0.3 mm 5 m/s 751 mmHg 91%
    02:00 +27°C° 0.3 mm 5 m/s 750 mmHg 92%
    03:00 +27°C° 0.4 mm 5 m/s 751 mmHg 92%
    04:00 +27°C° 0.4 mm 4 m/s 751 mmHg 93%
    05:00 +27°C° 0.4 mm 4 m/s 752 mmHg 93%
    06:00 +27°C° 0.8 mm 4 m/s 752 mmHg 91%
    07:00 +28°C° 0.8 mm 4 m/s 753 mmHg 89%
    08:00 +29°C° 0.8 mm 4 m/s 754 mmHg 87%
    09:00 +29°C° 0.8 mm 4 m/s 753 mmHg 86%
    10:00 +29°C° 0.8 mm 4 m/s 753 mmHg 84%
    11:00 +30°C° 0.8 mm 4 m/s 753 mmHg 83%
    12:00 +32°C° 0.6 mm 4 m/s 753 mmHg 75%
    13:00 +33°C° 0.6 mm 3 m/s 752 mmHg 67%
    14:00 +34°C° 0.6 mm 3 m/s 752 mmHg 59%
    15:00 +31°C° 0.8 mm 3 m/s 752 mmHg 69%
    16:00 +29°C° 0.8 mm 3 m/s 752 mmHg 79%
    17:00 +27°C° 0.8 mm 3 m/s 752 mmHg 89%
    18:00 +27°C° 0.5 mm 3 m/s 753 mmHg 89%
    19:00 +27°C° 0.5 mm 3 m/s 753 mmHg 90%
    20:00 +26°C° 0.5 mm 2 m/s 754 mmHg 91%
    21:00 +26°C° 0.4 mm 2 m/s 754 mmHg 91%
    22:00 +26°C° 0.4 mm 2 m/s 754 mmHg 92%
    23:00 +25°C° 0.4 mm 2 m/s 754 mmHg 93%

    19 Noiembrie, Marţi

    Timp Temperatura Precipitaţii Vânt Presiune Umiditate
    00:00 +25°C° 0 mm 1 m/s 753 mmHg 93%
    01:00 +25°C° 0 mm 1 m/s 753 mmHg 94%
    02:00 +25°C° 0 mm 1 m/s 752 mmHg 94%
    03:00 +25°C° 0 mm 1 m/s 753 mmHg 94%
    04:00 +25°C° 0 mm 1 m/s 753 mmHg 94%
    05:00 +25°C° 0 mm 1 m/s 753 mmHg 95%
    06:00 +27°C° 0 mm 1 m/s 753 mmHg 87%
    07:00 +29°C° 0 mm 2 m/s 754 mmHg 79%
    08:00 +31°C° 0 mm 2 m/s 755 mmHg 72%
    09:00 +31°C° 0 mm 3 m/s 754 mmHg 67%
    10:00 +33°C° 0 mm 3 m/s 754 mmHg 61%
    11:00 +34°C° 0 mm 3 m/s 754 mmHg 56%
    12:00 +34°C° 0 mm 3 m/s 753 mmHg 57%
    13:00 +34°C° 0 mm 3 m/s 753 mmHg 57%
    14:00 +33°C° 0 mm 3 m/s 752 mmHg 58%
    15:00 +31°C° 0 mm 3 m/s 752 mmHg 64%
    16:00 +30°C° 0 mm 4 m/s 752 mmHg 69%
    17:00 +29°C° 0 mm 4 m/s 752 mmHg 74%
    18:00 +29°C° 0 mm 4 m/s 753 mmHg 77%
    19:00 +28°C° 0 mm 4 m/s 753 mmHg 80%
    20:00 +28°C° 0 mm 5 m/s 753 mmHg 82%
    21:00 +28°C° 0 mm 5 m/s 753 mmHg 83%
    22:00 +28°C° 0 mm 5 m/s 753 mmHg 84%
    23:00 +28°C° 0 mm 5 m/s 753 mmHg 84%
    Arată mai mult